Flag for Canada Weather past 2 weeks in Saint John, New Brunswick, Canada

Now
1 °F

Clear.


Feels Like: -17 °F
Forecast: -10 / 9 °F
Wind: 14 mph from Northwest

Location: Saint John

Current Time: Feb 1, 2015 at 10:56:28 PM

Latest Report: Feb 1, 2015 at 10:00 PM


Visibility: 15 mi

Pressure: 30.01 "Hg

Humidity: 55%

Dew point: -11 °F

Location of Saint JohnLocation

Historic Weather in Saint John — Graph

°F

Saint John temperature yesterday

Maximum temperature yesterday: 27 °F (at 12:00 AM)
Minimum temperature yesterday: 12 °F (at 11:00 PM)
Average temperature yesterday: 22 °F

Past Weeks' High & Low Weather Summary

 TemperatureHumidityPressure
High45 °F (Jan 19, 7:00 AM)100% (Jan 19, 2:00 AM)30.38 "Hg (Jan 19, 2:00 AM)
Low-9 °F (Jan 18, 12:00 AM)41% (Jan 21, 2:00 PM)28.76 "Hg (Jan 25, 12:47 AM)
Average19 °F76%29.83 "Hg
* Reported Jan 17 9:00 PM — Feb 1 9:00 PM, Saint John, Weather by CustomWeather, © 2014

Note: Actual official high and low records may vary slightly from our data, if they occured in-between our weather recording intervals... More about our weather records

Advertising

Saint John weather history for previous 24 hours

 ConditionsComfort  
Time TempWeatherWind HumidityBarometerVisibility
9:00 PM
Feb 1
3 °FClear.16 mph55%29.99 "Hg15 mi
8:00 PM3 °FPassing clouds.13 mph55%29.98 "Hg15 mi
7:00 PM5 °FPassing clouds.8 mph51%29.96 "Hg15 mi
6:00 PM7 °FPassing clouds.12 mph56%29.91 "Hg15 mi
5:00 PM9 °FPassing clouds.17 mph51%29.87 "Hg15 mi
4:00 PM10 °FLow level haze.23 mph52%29.84 "Hg15 mi
3:00 PM12 °FPassing clouds.16 mph48%29.82 "Hg15 mi
2:00 PM12 °FScattered clouds.21 mph48%29.80 "Hg15 mi
1:00 PM10 °FPassing clouds.26 mph56%29.79 "Hg15 mi
12:00 PM10 °FPassing clouds.26 mph56%29.78 "Hg15 mi
11:00 AM9 °FPassing clouds.26 mph61%29.77 "Hg15 mi
10:00 AM7 °FScattered clouds.29 mph66%29.75 "Hg15 mi
9:00 AM5 °FPartly sunny.25 mph66%29.73 "Hg15 mi
8:00 AM3 °FPartly sunny.21 mph66%29.71 "Hg15 mi
7:00 AM3 °FPartly cloudy.25 mph66%29.67 "Hg15 mi
6:00 AM3 °FPassing clouds.24 mph72%29.64 "Hg12 mi
5:00 AM7 °FLight snow. Passing clouds.26 mph66%29.61 "Hg8 mi
4:00 AM9 °FLight snow. Mostly cloudy.25 mph72%29.59 "Hg4 mi
3:00 AM9 °FLight snow. Mostly cloudy.23 mph85%29.58 "Hg2 mi
2:00 AM10 °FLight snow. Overcast.22 mph85%29.58 "Hg1 mi
1:00 AM10 °FLight snow. Overcast.24 mph85%29.57 "Hg1 mi
12:00 AM10 °FLight snow. Overcast.21 mph85%29.55 "Hg1 mi
11:00 PM
Jan 31
12 °FLight snow. Ice fog.26 mph85%29.52 "Hg1 mi
10:00 PM14 °FLight snow. Mostly cloudy.24 mph85%29.51 "Hg1 mi
Weather by CustomWeather, © 2014

See weather overviewHow to use our weather pages